{"data":{"norad_id":28371,"epoch":"2026-05-24T22:46:58.685376Z","epoch_age_seconds":72710,"freshness":"FRESH","line1":"1 28371U 04025F   26144.94929034  .00000233  00000+0  63021-4 0  9992","line2":"2 28371  98.5506 144.3316 0024941  11.1090 349.0652 14.56667236162363","mean_motion":14.56667236,"eccentricity":0.0024941,"inclination_deg":98.5506,"raan_deg":144.3316,"arg_perigee_deg":11.109,"mean_anomaly_deg":349.0652,"bstar":6.3021e-5,"rev_number":16236,"period_min":98.855796602815,"perigee_km":686.29224557564,"apogee_km":721.61914034667,"semimajor_km":7082.0926929612,"source":"CELESTRAK","updated_at":"2026-05-25T13:38:25.046040Z"}}